Time,TemperatureF,DewpointF,PressureIn,WindDirection,WindDirectionDegrees,WindSpeedMPH,WindSpeedGustMPH,Humidity,HourlyPrecipIn,Conditions,Clouds,dailyrainin,SoftwareType,DateUTC
2013-01-27 00:03:00,74.4,69.2,29.81,ESE,122,0.0,1.0,84,0.00,,,0.00,Wunderground v.1.15,2013-01-26 13:03:00,
2013-01-27 00:08:00,74.4,69.2,29.81,South,188,0.0,2.0,84,0.00,,,0.00,Wunderground v.1.15,2013-01-26 13:08:00,
2013-01-27 00:13:00,74.4,69.2,29.81,SE,134,1.0,1.0,84,0.00,,,0.00,Wunderground v.1.15,2013-01-26 13:13:00,
2013-01-27 00:19:00,74.3,69.1,29.81,SSE,147,0.0,2.0,84,0.00,,,0.00,Wunderground v.1.15,2013-01-26 13:19:00,
2013-01-27 00:24:00,74.3,69.1,29.81,NE,55,0.0,1.0,84,0.00,,,0.00,Wunderground v.1.15,2013-01-26 13:24:00,
2013-01-27 00:29:00,74.3,69.1,29.81,ENE,62,0.0,1.0,84,0.00,,,0.00,Wunderground v.1.15,2013-01-26 13:29:00,
2013-01-27 00:35:00,74.2,69.1,29.81,South,179,0.0,0.0,84,0.00,,,0.00,Wunderground v.1.15,2013-01-26 13:35:00,
2013-01-27 00:41:00,74.2,69.1,29.81,NE,45,0.0,1.0,84,0.00,,,-99.99,WeatherLink 5.9.3,2013-01-26 13:41:00,
2013-01-27 00:46:00,74.2,69.1,29.81,East,82,1.0,1.0,84,0.00,,,0.00,Wunderground v.1.15,2013-01-26 13:46:00,
2013-01-27 00:51:00,74.3,69.1,29.81,ENE,58,1.0,1.0,84,0.00,,,0.00,Wunderground v.1.15,2013-01-26 13:51:00,
2013-01-27 00:56:00,74.3,69.1,29.80,ENE,69,1.0,1.0,84,0.00,,,0.00,Wunderground v.1.15,2013-01-26 13:56:00,
2013-01-27 01:01:00,74.3,69.1,29.80,SE,139,0.0,1.0,84,0.00,,,0.00,Wunderground v.1.15,2013-01-26 14:01:00,
2013-01-27 01:06:00,74.4,69.2,29.80,East,86,0.0,2.0,84,0.00,,,0.00,Wunderground v.1.15,2013-01-26 14:06:00,
2013-01-27 01:12:00,74.3,69.1,29.80,NE,55,1.0,1.0,84,0.00,,,0.00,Wunderground v.1.15,2013-01-26 14:12:00,
2013-01-27 01:17:00,74.4,68.9,29.80,NE,51,5.0,5.0,83,0.00,,,0.00,Wunderground v.1.15,2013-01-26 14:17:00,
2013-01-27 01:23:00,74.4,68.9,29.79,East,101,1.0,3.0,83,0.00,,,0.00,Wunderground v.1.15,2013-01-26 14:23:00,
2013-01-27 01:28:00,74.4,68.9,29.79,ENE,68,1.0,3.0,83,0.00,,,0.00,Wunderground v.1.15,2013-01-26 14:28:00,
2013-01-27 01:33:00,74.5,69.0,29.79,East,92,0.0,2.0,83,0.00,,,0.00,Wunderground v.1.15,2013-01-26 14:33:00,
2013-01-27 01:39:00,74.5,69.0,29.79,East,93,1.0,2.0,83,0.00,,,0.00,Wunderground v.1.15,2013-01-26 14:39:00,
2013-01-27 01:44:00,74.5,69.0,29.79,NE,46,1.0,1.0,83,0.00,,,0.00,Wunderground v.1.15,2013-01-26 14:44:00,
2013-01-27 01:49:00,74.5,69.0,29.79,East,89,1.0,1.0,83,0.00,,,0.00,Wunderground v.1.15,2013-01-26 14:49:00,
2013-01-27 01:55:00,74.4,68.9,29.78,East,84,0.0,0.0,83,0.00,,,0.00,Wunderground v.1.15,2013-01-26 14:55:00,
2013-01-27 02:00:00,74.5,69.0,29.79,East,90,0.0,2.0,83,0.00,,,-99.99,WeatherLink 5.9.3,2013-01-26 15:00:00,
2013-01-27 02:05:00,74.3,68.8,29.78,NNW,338,0.0,4.0,83,0.00,,,0.00,Wunderground v.1.15,2013-01-26 15:05:00,
2013-01-27 02:11:00,74.4,68.9,29.78,NE,45,0.0,2.0,83,0.00,,,-99.99,WeatherLink 5.9.3,2013-01-26 15:11:00,
2013-01-27 02:16:00,74.2,68.7,29.77,NE,53,0.0,3.0,83,0.00,,,0.00,Wunderground v.1.15,2013-01-26 15:16:00,
2013-01-27 02:21:00,74.2,68.7,29.77,East,84,0.0,1.0,83,0.00,,,0.00,Wunderground v.1.15,2013-01-26 15:21:00,
2013-01-27 02:26:00,74.1,68.6,29.76,ENE,58,1.0,4.0,83,0.00,,,0.00,Wunderground v.1.15,2013-01-26 15:26:00,
2013-01-27 02:31:00,74.2,68.7,29.77,ENE,67,1.0,3.0,83,0.00,,,-99.99,WeatherLink 5.9.3,2013-01-26 15:31:00,
2013-01-27 02:36:00,74.1,69.0,29.76,NE,51,2.0,5.0,84,0.00,,,0.00,Wunderground v.1.15,2013-01-26 15:36:00,
2013-01-27 02:41:00,74.1,69.0,29.76,NE,45,2.0,5.0,84,0.00,,,-99.99,WeatherLink 5.9.3,2013-01-26 15:41:00,
2013-01-27 02:46:00,74.1,69.0,29.76,ENE,70,0.0,4.0,84,0.00,,,0.00,Wunderground v.1.15,2013-01-26 15:46:00,
2013-01-27 02:51:00,74.1,69.0,29.76,ESE,107,1.0,2.0,84,0.00,,,0.00,Wunderground v.1.15,2013-01-26 15:51:00,
2013-01-27 02:56:00,74.0,68.9,29.76,NE,45,1.0,4.0,84,0.00,,,0.00,Wunderground v.1.15,2013-01-26 15:56:00,
2013-01-27 03:01:00,74.0,69.2,29.76,ENE,70,3.0,3.0,85,0.00,,,0.00,Wunderground v.1.15,2013-01-26 16:01:00,
2013-01-27 03:06:00,74.0,69.2,29.76,NE,51,2.0,4.0,85,0.00,,,0.00,Wunderground v.1.15,2013-01-26 16:06:00,
2013-01-27 03:11:00,74.0,69.2,29.76,NE,45,1.0,4.0,85,0.00,,,-99.99,WeatherLink 5.9.3,2013-01-26 16:11:00,
2013-01-27 03:16:00,74.1,69.3,29.76,ESE,113,0.0,5.0,85,0.00,,,0.00,Wunderground v.1.15,2013-01-26 16:16:00,
2013-01-27 03:21:00,74.1,69.3,29.76,NE,47,0.0,1.0,85,0.00,,,0.00,Wunderground v.1.15,2013-01-26 16:21:00,
2013-01-27 03:26:00,74.2,69.1,29.76,ENE,68,1.0,4.0,84,0.00,,,0.00,Wunderground v.1.15,2013-01-26 16:26:00,
2013-01-27 03:31:00,74.2,69.1,29.76,ENE,72,2.0,3.0,84,0.00,,,0.00,Wunderground v.1.15,2013-01-26 16:31:00,
2013-01-27 03:36:00,74.2,69.1,29.76,SE,143,0.0,3.0,84,0.00,,,0.00,Wunderground v.1.15,2013-01-26 16:36:00,
2013-01-27 03:41:00,74.2,69.1,29.76,ENE,70,0.0,1.0,84,0.00,,,0.00,Wunderground v.1.15,2013-01-26 16:41:00,
2013-01-27 03:46:00,74.2,69.1,29.76,SSW,206,1.0,3.0,84,0.00,,,0.00,Wunderground v.1.15,2013-01-26 16:46:00,
2013-01-27 03:51:00,74.3,69.1,29.76,East,101,0.0,1.0,84,0.00,,,0.00,Wunderground v.1.15,2013-01-26 16:51:00,
2013-01-27 03:56:00,74.3,69.1,29.76,NE,44,0.0,4.0,84,0.00,,,0.00,Wunderground v.1.15,2013-01-26 16:56:00,
2013-01-27 04:01:00,74.3,69.1,29.76,ESE,105,0.0,2.0,84,0.00,,,0.00,Wunderground v.1.15,2013-01-26 17:01:00,
2013-01-27 04:06:00,74.3,69.5,29.76,ESE,108,0.0,2.0,85,0.00,,,0.00,Wunderground v.1.15,2013-01-26 17:06:00,
2013-01-27 04:11:00,74.2,69.4,29.76,East,82,0.0,1.0,85,0.00,,,0.00,Wunderground v.1.15,2013-01-26 17:11:00,
2013-01-27 04:16:00,74.1,69.3,29.75,NE,53,1.0,1.0,85,0.00,,,0.00,Wunderground v.1.15,2013-01-26 17:16:00,
2013-01-27 04:22:00,73.9,69.4,29.76,ENE,60,0.0,1.0,86,0.00,,,0.00,Wunderground v.1.15,2013-01-26 17:22:00,
2013-01-27 04:27:00,73.8,69.7,29.76,East,92,0.0,2.0,87,0.00,,,0.00,Wunderground v.1.15,2013-01-26 17:27:00,
2013-01-27 04:32:00,73.6,69.8,29.75,ENE,59,0.0,1.0,88,0.00,,,0.00,Wunderground v.1.15,2013-01-26 17:32:00,
2013-01-27 04:37:00,73.4,69.6,29.75,ENE,65,0.0,1.0,88,0.00,,,0.00,Wunderground v.1.15,2013-01-26 17:37:00,
2013-01-27 04:42:00,73.1,69.7,29.75,NE,41,1.0,1.0,89,0.00,,,0.00,Wunderground v.1.15,2013-01-26 17:42:00,
2013-01-27 04:47:00,72.8,69.7,29.75,ENE,68,3.0,4.0,90,0.00,,,0.01,Wunderground v.1.15,2013-01-26 17:47:00,
2013-01-27 04:52:00,72.6,69.8,29.75,East,87,0.0,2.0,91,0.00,,,0.01,Wunderground v.1.15,2013-01-26 17:52:00,
2013-01-27 04:57:00,72.4,69.9,29.76,ENE,73,3.0,4.0,92,0.00,,,0.01,Wunderground v.1.15,2013-01-26 17:57:00,
2013-01-27 05:02:00,72.2,69.7,29.76,NE,38,1.0,3.0,92,0.22,,,0.02,Wunderground v.1.15,2013-01-26 18:02:00,
2013-01-27 05:07:00,72.1,69.6,29.76,ENE,77,2.0,3.0,92,0.50,,,0.05,Wunderground v.1.15,2013-01-26 18:07:00,
2013-01-27 05:12:00,71.9,69.8,29.76,ENE,73,1.0,4.0,93,0.18,,,0.06,Wunderground v.1.15,2013-01-26 18:12:00,
2013-01-27 05:17:00,71.8,69.7,29.76,East,96,2.0,4.0,93,0.67,,,0.11,Wunderground v.1.15,2013-01-26 18:17:00,
2013-01-27 05:22:00,71.7,69.6,29.76,NE,38,1.0,1.0,93,0.69,,,0.16,Wunderground v.1.15,2013-01-26 18:22:00,
2013-01-27 05:27:00,71.5,69.4,29.76,NNE,30,0.0,1.0,93,0.68,,,0.21,Wunderground v.1.15,2013-01-26 18:27:00,
2013-01-27 05:32:00,71.3,69.2,29.76,East,83,0.0,0.0,93,0.21,,,0.23,Wunderground v.1.15,2013-01-26 18:32:00,
2013-01-27 05:38:00,71.2,69.1,29.76,East,82,0.0,0.0,93,0.23,,,0.24,Wunderground v.1.15,2013-01-26 18:38:00,
2013-01-27 05:43:00,71.1,69.0,29.76,East,83,0.0,0.0,93,0.10,,,0.25,Wunderground v.1.15,2013-01-26 18:43:00,
2013-01-27 05:48:00,71.1,69.3,29.76,East,83,0.0,0.0,94,0.10,,,0.25,Wunderground v.1.15,2013-01-26 18:48:00,
2013-01-27 05:53:00,71.2,69.4,29.77,East,83,0.0,0.0,94,0.09,,,0.26,Wunderground v.1.15,2013-01-26 18:53:00,
2013-01-27 05:58:00,71.2,69.4,29.77,East,83,0.0,0.0,94,0.16,,,0.28,Wunderground v.1.15,2013-01-26 18:58:00,
2013-01-27 06:03:00,71.3,69.5,29.77,East,83,0.0,0.0,94,0.33,,,0.29,Wunderground v.1.15,2013-01-26 19:03:00,
2013-01-27 06:08:00,71.3,69.5,29.77,East,83,0.0,0.0,94,0.14,,,0.30,Wunderground v.1.15,2013-01-26 19:08:00,
2013-01-27 06:13:00,71.2,69.4,29.78,East,82,0.0,0.0,94,0.12,,,0.31,Wunderground v.1.15,2013-01-26 19:13:00,
2013-01-27 06:18:00,71.2,69.4,29.78,East,83,0.0,0.0,94,0.08,,,0.31,Wunderground v.1.15,2013-01-26 19:18:00,
2013-01-27 06:23:00,71.2,69.4,29.78,East,82,0.0,0.0,94,0.07,,,0.31,Wunderground v.1.15,2013-01-26 19:23:00,
2013-01-27 06:28:00,71.3,69.5,29.78,East,83,0.0,1.0,94,0.07,,,0.31,Wunderground v.1.15,2013-01-26 19:28:00,
2013-01-27 06:33:00,71.3,69.5,29.78,East,83,0.0,0.0,94,0.04,,,0.31,Wunderground v.1.15,2013-01-26 19:33:00,
2013-01-27 06:38:00,71.3,69.8,29.78,SSW,195,0.0,0.0,95,0.00,,,0.31,Wunderground v.1.15,2013-01-26 19:38:00,
2013-01-27 06:43:00,71.3,69.8,29.78,SSW,198,0.0,0.0,95,0.00,,,0.31,Wunderground v.1.15,2013-01-26 19:43:00,
2013-01-27 06:49:00,71.3,69.8,29.78,SSW,200,0.0,1.0,95,0.00,,,0.31,Wunderground v.1.15,2013-01-26 19:49:00,
2013-01-27 06:54:00,71.3,69.8,29.78,SSW,202,0.0,0.0,95,0.00,,,0.32,Wunderground v.1.15,2013-01-26 19:54:00,
2013-01-27 06:59:00,71.3,69.8,29.78,WNW,288,0.0,1.0,95,0.07,,,0.33,Wunderground v.1.15,2013-01-26 19:59:00,
2013-01-27 07:04:00,71.3,69.8,29.79,WNW,289,0.0,1.0,95,0.07,,,0.33,Wunderground v.1.15,2013-01-26 20:04:00,
2013-01-27 07:09:00,71.3,69.8,29.79,WNW,290,0.0,1.0,95,0.08,,,0.34,Wunderground v.1.15,2013-01-26 20:09:00,
2013-01-27 07:14:00,71.3,69.8,29.79,WSW,255,0.0,0.0,95,0.08,,,0.35,Wunderground v.1.15,2013-01-26 20:14:00,
2013-01-27 07:19:00,71.3,69.8,29.79,WSW,255,0.0,0.0,95,0.08,,,0.35,Wunderground v.1.15,2013-01-26 20:19:00,
2013-01-27 07:24:00,71.2,69.7,29.79,WSW,255,0.0,0.0,95,0.16,,,0.35,Wunderground v.1.15,2013-01-26 20:24:00,
2013-01-27 07:29:00,71.3,69.8,29.79,WSW,255,1.0,1.0,95,0.12,,,0.36,Wunderground v.1.15,2013-01-26 20:29:00,
2013-01-27 07:34:00,71.3,69.8,29.79,SSE,157,0.0,0.0,95,0.09,,,0.37,Wunderground v.1.15,2013-01-26 20:34:00,
2013-01-27 07:39:00,71.2,69.7,29.79,SSE,160,0.0,1.0,95,0.08,,,0.38,Wunderground v.1.15,2013-01-26 20:39:00,
2013-01-27 07:44:00,71.3,69.8,29.79,SSW,197,0.0,2.0,95,0.11,,,0.39,Wunderground v.1.15,2013-01-26 20:44:00,
2013-01-27 07:49:00,71.3,69.8,29.79,SSW,197,0.0,2.0,95,0.10,,,0.39,Wunderground v.1.15,2013-01-26 20:49:00,
2013-01-27 07:54:00,71.4,69.9,29.79,SE,139,0.0,1.0,95,0.10,,,0.39,Wunderground v.1.15,2013-01-26 20:54:00,
2013-01-27 07:59:00,71.4,69.9,29.80,South,181,1.0,1.0,95,0.09,,,0.40,Wunderground v.1.15,2013-01-26 20:59:00,
2013-01-27 08:04:00,71.3,69.8,29.80,SW,226,0.0,1.0,95,0.12,,,0.41,Wunderground v.1.15,2013-01-26 21:04:00,
2013-01-27 08:09:00,71.4,69.9,29.80,SW,221,0.0,1.0,95,0.27,,,0.43,Wunderground v.1.15,2013-01-26 21:09:00,
2013-01-27 08:14:00,71.4,69.9,29.80,SW,221,0.0,1.0,95,0.19,,,0.44,Wunderground v.1.15,2013-01-26 21:14:00,
2013-01-27 08:19:00,71.6,70.1,29.80,SW,221,0.0,1.0,95,0.10,,,0.45,Wunderground v.1.15,2013-01-26 21:19:00,
2013-01-27 08:24:00,71.7,70.5,29.80,SW,223,0.0,0.0,96,0.13,,,0.46,Wunderground v.1.15,2013-01-26 21:24:00,
2013-01-27 08:29:00,71.7,70.2,29.80,South,190,0.0,1.0,95,0.11,,,0.46,Wunderground v.1.15,2013-01-26 21:29:00,
2013-01-27 08:34:00,71.7,70.2,29.80,South,190,0.0,0.0,95,0.17,,,0.47,Wunderground v.1.15,2013-01-26 21:34:00,
2013-01-27 08:39:00,71.8,70.3,29.80,SSW,193,0.0,1.0,95,0.16,,,0.49,Wunderground v.1.15,2013-01-26 21:39:00,
2013-01-27 08:44:00,71.7,70.2,29.80,SSW,193,0.0,1.0,95,0.10,,,0.49,Wunderground v.1.15,2013-01-26 21:44:00,
2013-01-27 08:49:00,71.6,70.1,29.80,WSW,243,0.0,1.0,95,0.09,,,0.50,Wunderground v.1.15,2013-01-26 21:49:00,
2013-01-27 08:54:00,71.6,70.1,29.80,WNW,301,1.0,2.0,95,0.09,,,0.50,Wunderground v.1.15,2013-01-26 21:54:00,
2013-01-27 08:59:00,71.0,69.2,29.80,South,172,2.0,5.0,94,0.08,,,0.51,Wunderground v.1.15,2013-01-26 21:59:00,
2013-01-27 09:04:00,70.5,68.7,29.80,WNW,301,0.0,4.0,94,0.08,,,0.51,Wunderground v.1.15,2013-01-26 22:04:00,
2013-01-27 09:09:00,70.3,68.5,29.80,WNW,285,1.0,5.0,94,0.08,,,0.52,Wunderground v.1.15,2013-01-26 22:09:00,
2013-01-27 09:14:00,70.3,68.5,29.80,SSW,209,0.0,6.0,94,0.13,,,0.53,Wunderground v.1.15,2013-01-26 22:14:00,
2013-01-27 09:19:00,70.1,68.3,29.80,SSW,195,0.0,6.0,94,0.06,,,0.53,Wunderground v.1.15,2013-01-26 22:19:00,
2013-01-27 09:24:00,70.1,68.3,29.80,SSW,204,2.0,2.0,94,0.04,,,0.54,Wunderground v.1.15,2013-01-26 22:24:00,
2013-01-27 09:29:00,70.0,68.2,29.79,South,186,1.0,5.0,94,0.04,,,0.54,Wunderground v.1.15,2013-01-26 22:29:00,
2013-01-27 09:34:00,70.0,68.2,29.79,South,184,0.0,3.0,94,0.06,,,0.54,Wunderground v.1.15,2013-01-26 22:34:00,
2013-01-27 09:39:00,69.9,67.8,29.80,SSW,197,0.0,5.0,93,0.14,,,0.55,Wunderground v.1.15,2013-01-26 22:39:00,
2013-01-27 09:44:00,70.0,67.9,29.80,SW,225,0.0,1.0,93,0.08,,,0.55,Wunderground v.1.15,2013-01-26 22:44:00,
2013-01-27 09:49:00,70.1,68.0,29.80,South,190,0.0,3.0,93,0.07,,,0.56,Wunderground v.1.15,2013-01-26 22:49:00,
2013-01-27 09:54:00,70.1,67.7,29.80,SSW,202,2.0,3.0,92,0.07,,,0.56,Wunderground v.1.15,2013-01-26 22:54:00,
2013-01-27 10:00:00,70.1,67.7,29.80,SW,232,0.0,3.0,92,0.04,,,0.56,Wunderground v.1.15,2013-01-26 23:00:00,
2013-01-27 10:05:00,70.3,68.2,29.80,SSE,160,2.0,2.0,93,0.00,,,0.56,Wunderground v.1.15,2013-01-26 23:05:00,
2013-01-27 10:10:00,70.3,67.5,29.80,South,185,0.0,1.0,91,0.00,,,0.57,Wunderground v.1.15,2013-01-26 23:10:00,
2013-01-27 10:15:00,70.5,68.1,29.80,SE,136,0.0,2.0,92,0.00,,,0.57,Wunderground v.1.15,2013-01-26 23:15:00,
2013-01-27 10:21:00,70.1,67.7,29.80,South,180,1.0,3.0,92,0.06,,,-99.99,WeatherLink 5.9.3,2013-01-26 23:21:00,
2013-01-27 10:26:00,70.8,68.0,29.80,SSE,161,1.0,4.0,91,0.00,,,0.57,Wunderground v.1.15,2013-01-26 23:26:00,
2013-01-27 10:31:00,71.0,68.2,29.80,SSW,203,0.0,3.0,91,0.00,,,0.57,Wunderground v.1.15,2013-01-26 23:31:00,
2013-01-27 10:36:00,71.3,68.9,29.80,WNW,296,0.0,3.0,92,0.00,,,0.57,Wunderground v.1.15,2013-01-26 23:36:00,
2013-01-27 10:41:00,71.4,68.3,29.79,South,173,3.0,3.0,90,0.00,,,0.57,Wunderground v.1.15,2013-01-26 23:41:00,
2013-01-27 10:46:00,71.4,68.3,29.79,SSE,168,1.0,4.0,90,0.00,,,0.57,Wunderground v.1.15,2013-01-26 23:46:00,
2013-01-27 10:51:00,71.3,68.2,29.79,South,172,2.0,2.0,90,0.00,,,0.57,Wunderground v.1.15,2013-01-26 23:51:00,
2013-01-27 10:56:00,71.3,68.5,29.79,SSE,154,0.0,3.0,91,0.00,,,0.57,Wunderground v.1.15,2013-01-26 23:56:00,
2013-01-27 11:01:00,71.3,68.2,29.79,SSE,157,1.0,3.0,90,0.02,,,-99.99,WeatherLink 5.9.3,2013-01-27 00:01:00,
2013-01-27 11:06:00,71.5,68.7,29.79,SSE,161,1.0,2.0,91,0.00,,,0.58,Wunderground v.1.15,2013-01-27 00:06:00,
2013-01-27 11:12:00,71.4,68.6,29.79,South,186,0.0,1.0,91,0.00,,,0.58,Wunderground v.1.15,2013-01-27 00:12:00,
2013-01-27 11:17:00,71.6,68.8,29.79,South,178,0.0,1.0,91,0.00,,,0.59,Wunderground v.1.15,2013-01-27 00:17:00,
2013-01-27 11:22:00,71.7,68.9,29.79,SSE,160,1.0,1.0,91,0.00,,,0.59,Wunderground v.1.15,2013-01-27 00:22:00,
2013-01-27 11:28:00,71.7,68.6,29.79,NE,40,0.0,1.0,90,0.00,,,0.59,Wunderground v.1.15,2013-01-27 00:28:00,
2013-01-27 11:33:00,71.8,69.0,29.80,NE,38,1.0,1.0,91,0.00,,,0.59,Wunderground v.1.15,2013-01-27 00:33:00,
2013-01-27 11:38:00,71.7,68.6,29.80,East,82,2.0,2.0,90,0.00,,,0.60,Wunderground v.1.15,2013-01-27 00:38:00,
2013-01-27 11:43:00,71.5,68.4,29.79,SSE,165,1.0,4.0,90,0.12,,,0.61,Wunderground v.1.15,2013-01-27 00:43:00,
2013-01-27 11:48:00,71.5,69.1,29.78,ESE,108,0.0,4.0,92,0.08,,,0.61,Wunderground v.1.15,2013-01-27 00:48:00,
2013-01-27 11:53:00,71.5,68.7,29.79,SSE,150,0.0,2.0,91,0.06,,,0.61,Wunderground v.1.15,2013-01-27 00:53:00,
2013-01-27 11:58:00,71.4,68.6,29.79,East,83,0.0,3.0,91,0.09,,,0.61,Wunderground v.1.15,2013-01-27 00:58:00,
2013-01-27 12:03:00,71.5,69.1,29.79,ENE,65,0.0,2.0,92,0.44,,,0.64,Wunderground v.1.15,2013-01-27 01:03:00,
2013-01-27 12:08:00,71.2,68.8,29.79,NE,52,2.0,2.0,92,0.49,,,0.68,Wunderground v.1.15,2013-01-27 01:08:00,
2013-01-27 12:13:00,71.2,69.1,29.79,ENE,62,3.0,3.0,93,0.24,,,0.69,Wunderground v.1.15,2013-01-27 01:13:00,
2013-01-27 12:18:00,70.9,68.5,29.79,NE,52,2.0,4.0,92,0.15,,,0.70,Wunderground v.1.15,2013-01-27 01:18:00,
2013-01-27 12:23:00,70.7,68.3,29.79,ENE,68,0.0,2.0,92,0.07,,,0.71,Wunderground v.1.15,2013-01-27 01:23:00,
2013-01-27 12:28:00,70.7,68.6,29.80,NE,37,2.0,2.0,93,0.07,,,0.71,Wunderground v.1.15,2013-01-27 01:28:00,
2013-01-27 12:33:00,70.5,68.1,29.80,NNE,27,0.0,3.0,92,0.09,,,0.72,Wunderground v.1.15,2013-01-27 01:33:00,
2013-01-27 12:38:00,70.5,68.1,29.80,ENE,62,0.0,3.0,92,0.41,,,0.74,Wunderground v.1.15,2013-01-27 01:38:00,
2013-01-27 12:43:00,70.3,68.2,29.79,East,98,1.0,1.0,93,0.67,,,0.80,Wunderground v.1.15,2013-01-27 01:43:00,
2013-01-27 12:48:00,70.1,67.7,29.79,SE,131,0.0,3.0,92,0.43,,,0.82,Wunderground v.1.15,2013-01-27 01:48:00,
2013-01-27 12:53:00,70.0,67.6,29.78,SE,139,2.0,5.0,92,1.10,,,0.87,Wunderground v.1.15,2013-01-27 01:53:00,
2013-01-27 12:58:00,69.7,67.6,29.79,ESE,103,1.0,5.0,93,1.14,,,0.94,Wunderground v.1.15,2013-01-27 01:58:00,
2013-01-27 13:03:00,69.6,67.2,29.78,SE,129,1.0,3.0,92,1.57,,,1.03,Wunderground v.1.15,2013-01-27 02:03:00,
2013-01-27 13:08:00,69.5,67.4,29.78,South,185,0.0,3.0,93,1.15,,,1.09,Wunderground v.1.15,2013-01-27 02:08:00,
2013-01-27 13:13:00,69.6,67.8,29.79,West,259,0.0,1.0,94,0.34,,,1.13,Wunderground v.1.15,2013-01-27 02:13:00,
2013-01-27 13:18:00,69.5,67.7,29.78,SSW,197,1.0,2.0,94,0.23,,,1.14,Wunderground v.1.15,2013-01-27 02:18:00,
2013-01-27 13:23:00,69.4,67.6,29.78,South,171,2.0,3.0,94,0.14,,,1.15,Wunderground v.1.15,2013-01-27 02:23:00,
2013-01-27 13:28:00,69.4,67.6,29.78,SSE,158,3.0,3.0,94,0.10,,,1.16,Wunderground v.1.15,2013-01-27 02:28:00,
2013-01-27 13:33:00,69.5,67.7,29.78,SE,136,1.0,3.0,94,0.13,,,1.17,Wunderground v.1.15,2013-01-27 02:33:00,
2013-01-27 13:38:00,69.6,67.8,29.78,WNW,298,1.0,4.0,94,0.09,,,1.17,Wunderground v.1.15,2013-01-27 02:38:00,
2013-01-27 13:43:00,69.6,67.8,29.78,South,179,0.0,3.0,94,0.09,,,1.17,Wunderground v.1.15,2013-01-27 02:43:00,
2013-01-27 13:48:00,69.9,68.4,29.78,South,172,0.0,3.0,95,0.09,,,1.18,Wunderground v.1.15,2013-01-27 02:48:00,
2013-01-27 13:53:00,70.0,68.2,29.77,South,174,2.0,2.0,94,0.07,,,1.19,Wunderground v.1.15,2013-01-27 02:53:00,
2013-01-27 13:58:00,70.1,68.3,29.77,South,172,0.0,3.0,94,0.12,,,1.20,Wunderground v.1.15,2013-01-27 02:58:00,
2013-01-27 14:03:00,70.2,68.7,29.77,SW,236,1.0,1.0,95,0.12,,,1.20,Wunderground v.1.15,2013-01-27 03:03:00,
2013-01-27 14:08:00,70.2,68.4,29.77,SSW,203,2.0,3.0,94,0.11,,,1.20,Wunderground v.1.15,2013-01-27 03:08:00,
2013-01-27 14:13:00,70.1,68.3,29.77,SSW,196,0.0,1.0,94,0.09,,,1.21,Wunderground v.1.15,2013-01-27 03:13:00,
2013-01-27 14:18:00,70.1,68.3,29.77,South,172,1.0,3.0,94,0.07,,,1.21,Wunderground v.1.15,2013-01-27 03:18:00,
2013-01-27 14:23:00,70.0,68.2,29.77,South,176,1.0,3.0,94,0.05,,,1.21,Wunderground v.1.15,2013-01-27 03:23:00,
2013-01-27 14:28:00,70.1,68.3,29.77,SSW,204,0.0,3.0,94,0.04,,,1.22,Wunderground v.1.15,2013-01-27 03:28:00,
2013-01-27 14:33:00,70.2,68.4,29.77,SSW,203,1.0,3.0,94,0.04,,,1.22,Wunderground v.1.15,2013-01-27 03:33:00,
2013-01-27 14:38:00,70.3,68.5,29.76,SSE,157,2.0,3.0,94,0.05,,,1.23,Wunderground v.1.15,2013-01-27 03:38:00,
2013-01-27 14:43:00,70.2,68.4,29.76,SE,145,1.0,3.0,94,0.05,,,1.23,Wunderground v.1.15,2013-01-27 03:43:00,
2013-01-27 14:48:00,70.2,68.4,29.76,SSE,148,1.0,3.0,94,0.07,,,1.24,Wunderground v.1.15,2013-01-27 03:48:00,
2013-01-27 14:53:00,70.3,68.5,29.76,South,188,3.0,3.0,94,0.08,,,1.24,Wunderground v.1.15,2013-01-27 03:53:00,
2013-01-27 14:58:00,70.3,68.5,29.76,ENE,77,1.0,4.0,94,0.12,,,1.25,Wunderground v.1.15,2013-01-27 03:58:00,
2013-01-27 15:03:00,70.3,68.5,29.76,South,178,0.0,2.0,94,0.15,,,1.26,Wunderground v.1.15,2013-01-27 04:03:00,
2013-01-27 15:08:00,70.4,68.6,29.75,WNW,287,2.0,3.0,94,0.17,,,1.28,Wunderground v.1.15,2013-01-27 04:08:00,
2013-01-27 15:13:00,70.4,68.6,29.75,SE,136,1.0,1.0,94,0.17,,,1.28,Wunderground v.1.15,2013-01-27 04:13:00,
2013-01-27 15:18:00,70.4,68.6,29.75,SSE,165,1.0,2.0,94,0.16,,,1.29,Wunderground v.1.15,2013-01-27 04:18:00,
2013-01-27 15:23:00,70.3,68.5,29.75,SSW,195,2.0,2.0,94,0.19,,,1.31,Wunderground v.1.15,2013-01-27 04:23:00,
2013-01-27 15:28:00,70.2,68.4,29.75,SW,214,0.0,2.0,94,0.14,,,1.31,Wunderground v.1.15,2013-01-27 04:28:00,
2013-01-27 15:33:00,70.1,68.3,29.75,ESE,122,0.0,2.0,94,0.10,,,1.32,Wunderground v.1.15,2013-01-27 04:33:00,
2013-01-27 15:38:00,69.9,68.1,29.75,South,174,0.0,2.0,94,0.28,,,1.34,Wunderground v.1.15,2013-01-27 04:38:00,
2013-01-27 15:43:00,70.0,68.5,29.75,South,174,1.0,2.0,95,0.22,,,1.35,Wunderground v.1.15,2013-01-27 04:43:00,
2013-01-27 15:48:00,70.0,68.5,29.75,SSW,202,0.0,2.0,95,0.31,,,1.38,Wunderground v.1.15,2013-01-27 04:48:00,
2013-01-27 15:53:00,70.1,68.6,29.75,West,281,0.0,1.0,95,0.26,,,1.39,Wunderground v.1.15,2013-01-27 04:53:00,
2013-01-27 15:58:00,69.9,68.4,29.75,South,184,0.0,2.0,95,0.19,,,1.41,Wunderground v.1.15,2013-01-27 04:58:00,
2013-01-27 16:00:00,69.9,68.1,29.75,SSE,154,2.0,2.0,94,0.19,,,1.41,Wunderground v.1.15,2013-01-27 05:00:00,
2013-01-27 16:01:00,69.8,68.0,29.75,SSE,157,1.0,1.0,94,0.19,,,1.41,Wunderground v.1.15,2013-01-27 05:01:00,
2013-01-27 16:03:00,69.7,67.9,29.75,SSE,152,0.0,3.0,94,0.12,,,1.41,Wunderground v.1.15,2013-01-27 05:03:00,
2013-01-27 16:08:00,69.7,68.2,29.75,SSW,193,1.0,3.0,95,0.12,,,1.42,Wunderground v.1.15,2013-01-27 05:08:00,
2013-01-27 16:13:00,69.8,68.3,29.75,SSW,193,0.0,1.0,95,0.09,,,1.43,Wunderground v.1.15,2013-01-27 05:13:00,
2013-01-27 16:18:00,69.9,68.4,29.75,WSW,254,0.0,1.0,95,0.20,,,1.44,Wunderground v.1.15,2013-01-27 05:18:00,
2013-01-27 16:23:00,70.0,68.5,29.75,South,186,0.0,1.0,95,0.17,,,1.46,Wunderground v.1.15,2013-01-27 05:23:00,
2013-01-27 16:28:00,70.0,68.5,29.75,WSW,255,0.0,2.0,95,0.18,,,1.46,Wunderground v.1.15,2013-01-27 05:28:00,
2013-01-27 16:33:00,70.1,68.6,29.75,WSW,255,0.0,1.0,95,0.08,,,1.46,Wunderground v.1.15,2013-01-27 05:33:00,
2013-01-27 16:38:00,70.2,68.7,29.75,WSW,238,0.0,1.0,95,0.08,,,1.47,Wunderground v.1.15,2013-01-27 05:38:00,
2013-01-27 16:43:00,70.2,68.7,29.75,WSW,244,0.0,1.0,95,0.06,,,1.47,Wunderground v.1.15,2013-01-27 05:43:00,
2013-01-27 16:48:00,70.1,68.6,29.75,WSW,244,0.0,1.0,95,0.05,,,1.48,Wunderground v.1.15,2013-01-27 05:48:00,
2013-01-27 16:53:00,70.1,68.6,29.75,South,191,0.0,1.0,95,0.05,,,1.48,Wunderground v.1.15,2013-01-27 05:53:00,
2013-01-27 16:58:00,70.2,68.7,29.75,SSW,195,0.0,1.0,95,0.05,,,1.49,Wunderground v.1.15,2013-01-27 05:58:00,
2013-01-27 17:03:00,70.2,68.7,29.75,WNW,296,0.0,1.0,95,0.09,,,1.49,Wunderground v.1.15,2013-01-27 06:03:00,
2013-01-27 17:09:00,70.2,68.7,29.75,SSW,202,1.0,1.0,95,0.13,,,1.50,Wunderground v.1.15,2013-01-27 06:09:00,
2013-01-27 17:14:00,70.4,69.2,29.75,SSW,200,0.0,2.0,96,0.10,,,1.50,Wunderground v.1.15,2013-01-27 06:14:00,
2013-01-27 17:19:00,70.4,68.9,29.75,SSW,200,2.0,3.0,95,0.08,,,1.51,Wunderground v.1.15,2013-01-27 06:19:00,
2013-01-27 17:24:00,70.4,68.9,29.75,SSW,193,0.0,2.0,95,0.07,,,1.51,Wunderground v.1.15,2013-01-27 06:24:00,
2013-01-27 17:29:00,70.5,69.0,29.75,SSW,200,0.0,3.0,95,0.04,,,1.51,Wunderground v.1.15,2013-01-27 06:29:00,
2013-01-27 17:34:00,70.5,69.0,29.75,SE,145,0.0,1.0,95,0.04,,,1.52,Wunderground v.1.15,2013-01-27 06:34:00,
2013-01-27 17:39:00,70.6,69.1,29.75,West,266,0.0,1.0,95,0.04,,,1.52,Wunderground v.1.15,2013-01-27 06:39:00,
2013-01-27 17:44:00,70.5,69.0,29.75,South,179,0.0,2.0,95,0.04,,,1.52,Wunderground v.1.15,2013-01-27 06:44:00,
2013-01-27 17:49:00,70.5,69.0,29.75,WNW,294,0.0,2.0,95,0.00,,,1.52,Wunderground v.1.15,2013-01-27 06:49:00,
2013-01-27 17:54:00,70.4,68.9,29.75,WSW,252,0.0,2.0,95,0.00,,,1.52,Wunderground v.1.15,2013-01-27 06:54:00,
2013-01-27 17:59:00,70.4,68.9,29.75,WSW,243,0.0,2.0,95,0.00,,,1.52,Wunderground v.1.15,2013-01-27 06:59:00,
2013-01-27 18:04:00,70.5,69.0,29.75,WSW,247,0.0,1.0,95,0.00,,,1.52,Wunderground v.1.15,2013-01-27 07:04:00,
2013-01-27 18:13:00,70.3,68.8,29.75,SSW,205,0.0,2.0,95,0.00,,,1.52,Wunderground v.1.15,2013-01-27 07:13:00,
2013-01-27 18:18:00,70.3,68.8,29.76,West,266,0.0,2.0,95,0.00,,,1.52,Wunderground v.1.15,2013-01-27 07:18:00,
2013-01-27 18:23:00,70.4,68.9,29.76,WNW,288,0.0,1.0,95,0.00,,,1.53,Wunderground v.1.15,2013-01-27 07:23:00,
2013-01-27 18:28:00,70.3,68.8,29.76,SSW,202,1.0,3.0,95,0.00,,,1.53,Wunderground v.1.15,2013-01-27 07:28:00,
2013-01-27 18:33:00,70.2,68.7,29.76,West,281,0.0,1.0,95,0.00,,,1.53,Wunderground v.1.15,2013-01-27 07:33:00,
2013-01-27 18:38:00,70.2,68.7,29.76,SSW,206,2.0,2.0,95,0.00,,,1.53,Wunderground v.1.15,2013-01-27 07:38:00,
2013-01-27 18:44:00,70.2,68.7,29.77,SSW,212,0.0,1.0,95,0.00,,,1.53,Wunderground v.1.15,2013-01-27 07:44:00,
2013-01-27 18:49:00,70.1,68.6,29.77,SW,214,0.0,1.0,95,0.00,,,1.53,Wunderground v.1.15,2013-01-27 07:49:00,
2013-01-27 18:54:00,70.1,68.6,29.77,SSW,210,1.0,1.0,95,0.00,,,1.54,Wunderground v.1.15,2013-01-27 07:54:00,
2013-01-27 18:59:00,70.1,68.6,29.77,SW,218,0.0,2.0,95,0.00,,,1.54,Wunderground v.1.15,2013-01-27 07:59:00,
2013-01-27 19:04:00,70.0,68.5,29.77,SSW,202,1.0,1.0,95,0.00,,,1.54,Wunderground v.1.15,2013-01-27 08:04:00,
2013-01-27 19:09:00,70.0,68.5,29.77,NW,311,0.0,1.0,95,0.00,,,1.54,Wunderground v.1.15,2013-01-27 08:09:00,
2013-01-27 19:14:00,70.0,68.5,29.77,SSE,166,0.0,1.0,95,0.00,,,1.54,Wunderground v.1.15,2013-01-27 08:14:00,
2013-01-27 19:19:00,69.9,68.4,29.77,SW,226,0.0,1.0,95,0.00,,,1.54,Wunderground v.1.15,2013-01-27 08:19:00,
2013-01-27 19:24:00,69.8,68.3,29.78,SSW,209,0.0,1.0,95,0.05,,,1.55,Wunderground v.1.15,2013-01-27 08:24:00,
2013-01-27 19:29:00,69.7,68.2,29.78,South,180,0.0,1.0,95,0.05,,,1.55,Wunderground v.1.15,2013-01-27 08:29:00,
2013-01-27 19:34:00,69.7,68.2,29.78,South,179,0.0,1.0,95,0.05,,,1.56,Wunderground v.1.15,2013-01-27 08:34:00,
2013-01-27 19:39:00,69.7,68.5,29.78,South,180,0.0,1.0,96,0.05,,,1.56,Wunderground v.1.15,2013-01-27 08:39:00,
2013-01-27 19:44:00,69.7,68.5,29.78,South,169,0.0,1.0,96,0.05,,,1.56,Wunderground v.1.15,2013-01-27 08:44:00,
2013-01-27 19:49:00,69.7,68.5,29.78,SSE,168,0.0,1.0,96,0.04,,,1.56,Wunderground v.1.15,2013-01-27 08:49:00,
2013-01-27 19:54:00,69.8,68.6,29.78,SSE,168,0.0,0.0,96,0.04,,,1.57,Wunderground v.1.15,2013-01-27 08:54:00,
2013-01-27 19:59:00,69.8,68.6,29.79,South,169,0.0,0.0,96,0.04,,,1.57,Wunderground v.1.15,2013-01-27 08:59:00,
2013-01-27 20:04:00,69.9,68.7,29.79,SSE,168,0.0,0.0,96,0.04,,,1.57,Wunderground v.1.15,2013-01-27 09:04:00,
2013-01-27 20:09:00,70.3,69.1,29.78,ESE,108,0.0,2.0,96,0.04,,,1.57,Wunderground v.1.15,2013-01-27 09:09:00,
2013-01-27 20:14:00,70.5,69.3,29.79,NE,41,2.0,2.0,96,0.04,,,1.57,Wunderground v.1.15,2013-01-27 09:14:00,
2013-01-27 20:19:00,70.7,69.5,29.79,ENE,58,0.0,2.0,96,0.05,,,1.58,Wunderground v.1.15,2013-01-27 09:19:00,
2013-01-27 20:24:00,70.7,69.5,29.79,NNE,32,0.0,1.0,96,0.05,,,1.58,Wunderground v.1.15,2013-01-27 09:24:00,
2013-01-27 20:29:00,70.8,69.6,29.79,ENE,61,0.0,1.0,96,0.04,,,1.58,Wunderground v.1.15,2013-01-27 09:29:00,
2013-01-27 20:34:00,70.7,69.5,29.79,ENE,61,1.0,3.0,96,0.00,,,1.58,Wunderground v.1.15,2013-01-27 09:34:00,
2013-01-27 20:39:00,70.7,69.5,29.79,SSE,158,1.0,4.0,96,0.00,,,1.58,Wunderground v.1.15,2013-01-27 09:39:00,
2013-01-27 20:44:00,70.7,69.5,29.79,ENE,68,0.0,2.0,96,0.00,,,1.58,Wunderground v.1.15,2013-01-27 09:44:00,
2013-01-27 20:49:00,70.6,69.4,29.80,East,98,0.0,3.0,96,0.00,,,1.58,Wunderground v.1.15,2013-01-27 09:49:00,
2013-01-27 20:54:00,70.6,69.4,29.80,NE,45,1.0,3.0,96,0.00,,,1.59,Wunderground v.1.15,2013-01-27 09:54:00,
2013-01-27 20:59:00,70.6,69.4,29.80,ENE,68,0.0,3.0,96,0.00,,,1.59,Wunderground v.1.15,2013-01-27 09:59:00,
2013-01-27 21:05:00,70.5,69.3,29.80,NE,46,1.0,4.0,96,0.04,,,1.60,Wunderground v.1.15,2013-01-27 10:05:00,
2013-01-27 21:10:00,70.4,69.2,29.80,SE,133,0.0,4.0,96,0.04,,,1.60,Wunderground v.1.15,2013-01-27 10:10:00,
2013-01-27 21:15:00,70.3,69.1,29.80,ESE,110,0.0,3.0,96,0.04,,,1.60,Wunderground v.1.15,2013-01-27 10:15:00,
2013-01-27 21:20:00,70.2,69.0,29.80,ENE,73,0.0,5.0,96,0.04,,,1.60,Wunderground v.1.15,2013-01-27 10:20:00,
2013-01-27 21:25:00,70.2,69.0,29.81,NE,52,1.0,2.0,96,0.00,,,1.61,Wunderground v.1.15,2013-01-27 10:25:00,
2013-01-27 21:30:00,70.1,68.9,29.81,ENE,68,2.0,2.0,96,0.00,,,1.61,Wunderground v.1.15,2013-01-27 10:30:00,
2013-01-27 21:35:00,70.1,68.9,29.81,SE,143,1.0,3.0,96,0.05,,,1.61,Wunderground v.1.15,2013-01-27 10:35:00,
2013-01-27 21:40:00,70.0,68.8,29.81,ENE,73,1.0,4.0,96,0.05,,,1.61,Wunderground v.1.15,2013-01-27 10:40:00,
2013-01-27 21:45:00,69.9,68.7,29.81,ENE,66,1.0,3.0,96,0.07,,,1.62,Wunderground v.1.15,2013-01-27 10:45:00,
2013-01-27 21:50:00,69.9,68.7,29.81,ENE,66,0.0,3.0,96,0.07,,,1.62,Wunderground v.1.15,2013-01-27 10:50:00,
2013-01-27 21:55:00,69.9,68.7,29.81,East,89,0.0,2.0,96,0.07,,,1.63,Wunderground v.1.15,2013-01-27 10:55:00,
2013-01-27 22:00:00,69.9,68.7,29.81,East,87,0.0,0.0,96,0.08,,,1.64,Wunderground v.1.15,2013-01-27 11:00:00,
2013-01-27 22:05:00,70.0,68.8,29.81,SE,134,0.0,2.0,96,0.08,,,1.64,Wunderground v.1.15,2013-01-27 11:05:00,
2013-01-27 22:10:00,70.0,68.8,29.81,SSE,158,0.0,0.0,96,0.06,,,1.65,Wunderground v.1.15,2013-01-27 11:10:00,
2013-01-27 22:15:00,70.1,68.9,29.81,SSW,204,0.0,2.0,96,0.06,,,1.65,Wunderground v.1.15,2013-01-27 11:15:00,
2013-01-27 22:20:00,70.1,68.9,29.81,SSW,202,0.0,1.0,96,0.05,,,-99.99,WeatherLink 5.9.3,2013-01-27 11:20:00,
2013-01-27 22:25:00,70.1,68.9,29.81,WNW,290,0.0,1.0,96,0.09,,,1.66,Wunderground v.1.15,2013-01-27 11:25:00,
2013-01-27 22:31:00,70.1,68.9,29.81,North,-999,0.0,0.0,96,0.06,,,-99.99,WeatherLink 5.9.3,2013-01-27 11:31:00,
2013-01-27 22:36:00,70.1,68.9,29.81,South,188,1.0,2.0,96,0.08,,,1.67,Wunderground v.1.15,2013-01-27 11:36:00,
2013-01-27 22:41:00,70.1,68.9,29.81,South,180,0.0,1.0,96,0.06,,,-99.99,WeatherLink 5.9.3,2013-01-27 11:41:00,
2013-01-27 22:46:00,70.1,68.9,29.81,East,86,0.0,2.0,96,0.11,,,1.69,Wunderground v.1.15,2013-01-27 11:46:00,
2013-01-27 22:51:00,70.2,69.0,29.81,ENE,75,0.0,0.0,96,0.12,,,1.69,Wunderground v.1.15,2013-01-27 11:51:00,
2013-01-27 22:56:00,70.2,69.0,29.80,ENE,65,1.0,2.0,96,0.12,,,1.70,Wunderground v.1.15,2013-01-27 11:56:00,
2013-01-27 23:01:00,70.2,69.0,29.81,South,184,1.0,2.0,96,0.10,,,1.71,Wunderground v.1.15,2013-01-27 12:01:00,
2013-01-27 23:06:00,70.2,69.0,29.80,East,87,0.0,2.0,96,0.10,,,1.71,Wunderground v.1.15,2013-01-27 12:06:00,
2013-01-27 23:11:00,70.3,69.1,29.80,NNE,28,0.0,1.0,96,0.09,,,1.72,Wunderground v.1.15,2013-01-27 12:11:00,
2013-01-27 23:16:00,70.3,69.1,29.80,ENE,66,0.0,2.0,96,0.09,,,1.72,Wunderground v.1.15,2013-01-27 12:16:00,
2013-01-27 23:21:00,70.3,69.1,29.80,East,80,3.0,3.0,96,0.10,,,1.73,Wunderground v.1.15,2013-01-27 12:21:00,
2013-01-27 23:26:00,70.3,69.1,29.80,East,89,1.0,3.0,96,0.10,,,1.73,Wunderground v.1.15,2013-01-27 12:26:00,
2013-01-27 23:32:00,70.3,69.1,29.80,East,90,1.0,2.0,96,0.08,,,-99.99,WeatherLink 5.9.3,2013-01-27 12:32:00,
2013-01-27 23:37:00,70.4,69.2,29.80,ENE,58,0.0,2.0,96,0.08,,,1.75,Wunderground v.1.15,2013-01-27 12:37:00,
2013-01-27 23:42:00,70.4,69.2,29.80,South,176,1.0,1.0,96,0.08,,,1.75,Wunderground v.1.15,2013-01-27 12:42:00,
2013-01-27 23:47:00,70.4,69.2,29.80,South,188,1.0,2.0,96,0.05,,,1.76,Wunderground v.1.15,2013-01-27 12:47:00,
2013-01-27 23:52:00,70.4,69.2,29.80,East,101,1.0,3.0,96,0.05,,,1.76,Wunderground v.1.15,2013-01-27 12:52:00,
2013-01-27 23:57:00,70.4,69.2,29.80,East,89,1.0,3.0,96,0.05,,,1.76,Wunderground v.1.15,2013-01-27 12:57:00,